Location: Spring Creek
(38.2870°N, 100.2160°W)
Time: 23:01:44
(UTC+00:00)

Cosmos 2297 Rocket - Pass Details

Date: 27 September 2021
Orbit: 841 x 842 km, 71.0° (Epoch: 18 October)

Event Time Altitude Azimuth Distance (km) Brightness Sun altitude
Rises 03:23:47 0° 347° (NNW) 3,403 5.9 -33.6°
Reaches altitude 10° 03:26:33 10° 358° (N) 2,465 4.9 -34.1°
Enters shadow 03:28:07 17° 9° (N) 1,994 4.3 -34.3°
